Flag for U.S.A. Weather past 2 weeks in Macon, Georgia, U.S.A.

Now
59 °F

Sunny.


Feels Like: 58 °F
Forecast: 32 / 60 °F
Wind: 7 mph from South

Location: Middle Georgia Regional Airport

Current Time: Mar 29, 2015 at 7:46:36 PM

Latest Report: Mar 29, 2015 at 6:53 PM


Visibility: 10 mi

Pressure: 30.28 "Hg

Humidity: 28%

Dew point: 26 °F

Location of MaconLocation

Historic Weather in Macon — Graph

°F

Macon temperature yesterday

Maximum temperature yesterday: 57 °F (at 3:53 PM)
Minimum temperature yesterday: 37 °F (at 6:53 AM)
Average temperature yesterday: 46 °F

Past Weeks' High & Low Weather Summary

 TemperatureHumidityPressure
High84 °F (Mar 17, 3:53 PM)100% (Mar 19, 10:53 PM)30.44 "Hg (Mar 19, 10:53 PM)
Low28 °F (Mar 29, 7:53 AM)15% (Mar 16, 2:53 PM)29.69 "Hg (Mar 27, 5:53 AM)
Average60 °F74%30.06 "Hg
* Reported Mar 14 5:53 PM — Mar 29 5:53 PM, Macon, Weather by CustomWeather, © 2015

Note: Actual official high and low records may vary slightly from our data, if they occured in-between our weather recording intervals... More about our weather records

Advertising

Macon weather history for previous 24 hours

 ConditionsComfort  
Time TempWeatherWind HumidityBarometerVisibility
5:53 PM
Sun, Mar 29
62 °FSunny.3 mph23%30.29 "Hg10 mi
4:53 PM62 °FSunny.5 mph19%30.30 "Hg10 mi
3:53 PM60 °FSunny.6 mph21%30.32 "Hg10 mi
2:53 PM59 °FSunny.6 mph28%30.35 "Hg10 mi
1:53 PM56 °FSunny.3 mph29%30.37 "Hg10 mi
12:53 PM54 °FSunny.6 mph24%30.40 "Hg10 mi
11:53 AM52 °FSunny.7 mph30%30.43 "Hg10 mi
10:53 AM48 °FSunny.5 mph34%30.44 "Hg10 mi
9:53 AM43 °FSunny.9 mph51%30.42 "Hg10 mi
8:53 AM37 °FSunny.No wind76%30.41 "Hg10 mi
7:53 AM28 °FClear.No wind89%30.39 "Hg10 mi
6:53 AM29 °FClear.No wind89%30.37 "Hg10 mi
5:53 AM30 °FClear.5 mph92%30.34 "Hg10 mi
4:53 AM30 °FClear.No wind89%30.32 "Hg10 mi
3:53 AM31 °FClear.No wind82%30.30 "Hg10 mi
2:53 AM32 °FClear.No wind79%30.30 "Hg10 mi
1:53 AM34 °FClear.No wind76%30.29 "Hg10 mi
12:53 AM35 °FClear.6 mph75%30.27 "Hg10 mi
11:53 PM
Sat, Mar 28
38 °FClear.5 mph73%30.26 "Hg10 mi
10:53 PM39 °FPassing clouds.No wind62%30.24 "Hg10 mi
9:53 PM44 °FClear.3 mph43%30.22 "Hg10 mi
8:53 PM47 °FClear.5 mph34%30.19 "Hg10 mi
7:53 PM51 °FSunny.7 mph26%30.16 "Hg10 mi
Weather by CustomWeather, © 2015

See weather overviewHow to use our weather pages